Time,TemperatureF,DewpointF,PressureIn,WindDirection,WindDirectionDegrees,WindSpeedMPH,WindSpeedGustMPH,Humidity,HourlyPrecipIn,Conditions,Clouds,dailyrainin,SolarRadiationWatts/m^2,SoftwareType,DateUTC
2013-01-08 00:52:00,25.0,4.0,-100.00,North,8,3.0,5.0,40,-99.99,,,0.00,0.000000,,2013-01-08 07:52:00,
2013-01-08 01:12:00,25.0,4.0,-100.00,North,8,3.0,5.0,40,-99.99,,,0.00,0.000000,,2013-01-08 08:12:00,
2013-01-08 01:22:00,25.0,4.0,-100.00,North,8,3.0,5.0,40,-99.99,,,0.00,0.000000,,2013-01-08 08:22:00,
2013-01-08 01:30:00,23.0,3.0,-100.00,East,91,1.0,4.0,41,-99.99,,,0.00,0.000000,,2013-01-08 08:30:00,
2013-01-08 01:53:00,23.0,3.0,-100.00,East,91,1.0,4.0,41,-99.99,,,0.00,0.000000,,2013-01-08 08:53:00,
2013-01-08 02:02:00,23.0,3.0,-100.00,East,91,1.0,4.0,41,-99.99,,,0.00,0.000000,,2013-01-08 09:02:00,
2013-01-08 02:12:00,23.0,3.0,-100.00,East,91,1.0,4.0,41,-99.99,,,0.00,0.000000,,2013-01-08 09:12:00,
2013-01-08 02:22:00,23.0,3.0,-100.00,East,91,1.0,4.0,41,-99.99,,,0.00,0.000000,,2013-01-08 09:22:00,
2013-01-08 02:30:00,22.0,3.0,-100.00,NNW,341,1.0,5.0,43,0.00,,,0.00,0.000000,,2013-01-08 09:30:00,
2013-01-08 02:52:00,22.0,3.0,-100.00,NNW,341,1.0,5.0,43,0.00,,,0.00,0.000000,,2013-01-08 09:52:00,
2013-01-08 03:02:00,22.0,3.0,-100.00,NNW,341,1.0,5.0,43,0.00,,,0.00,0.000000,,2013-01-08 10:02:00,
2013-01-08 03:12:00,22.0,3.0,-100.00,NNW,341,1.0,5.0,43,0.00,,,0.00,0.000000,,2013-01-08 10:12:00,
2013-01-08 03:22:00,22.0,3.0,-100.00,NNW,341,1.0,5.0,43,0.00,,,0.00,0.000000,,2013-01-08 10:22:00,
2013-01-08 03:30:00,21.0,2.0,-100.00,WSW,252,1.0,3.0,43,0.00,,,0.00,0.000000,,2013-01-08 10:30:00,
2013-01-08 03:52:00,21.0,2.0,-100.00,WSW,252,1.0,3.0,43,0.00,,,0.00,0.000000,,2013-01-08 10:52:00,
2013-01-08 04:02:00,21.0,2.0,-100.00,WSW,252,1.0,3.0,43,0.00,,,0.00,0.000000,,2013-01-08 11:02:00,
2013-01-08 04:12:00,21.0,2.0,-100.00,WSW,252,1.0,3.0,43,0.00,,,0.00,0.000000,,2013-01-08 11:12:00,
2013-01-08 04:22:00,21.0,2.0,-100.00,WSW,252,1.0,3.0,43,0.00,,,0.00,0.000000,,2013-01-08 11:22:00,
2013-01-08 04:30:00,22.0,0.0,-100.00,SW,223,1.0,3.0,38,0.00,,,-99.99,0.000000,,2013-01-08 11:30:00,
2013-01-08 04:53:00,22.0,0.0,-100.00,SW,223,1.0,3.0,38,0.00,,,-99.99,0.000000,,2013-01-08 11:53:00,
2013-01-08 05:02:00,22.0,0.0,-100.00,SW,223,1.0,3.0,38,0.00,,,-99.99,0.000000,,2013-01-08 12:02:00,
2013-01-08 05:12:00,22.0,0.0,-100.00,SW,223,1.0,3.0,38,0.00,,,-99.99,0.000000,,2013-01-08 12:12:00,
2013-01-08 05:22:00,22.0,0.0,-100.00,SW,223,1.0,3.0,38,0.00,,,-99.99,0.000000,,2013-01-08 12:22:00,
2013-01-08 05:53:00,23.0,3.0,-100.00,East,89,2.0,6.0,42,0.00,,,0.00,0.000000,,2013-01-08 12:53:00,
2013-01-08 06:03:00,23.0,3.0,-100.00,East,89,2.0,6.0,42,0.00,,,0.00,0.000000,,2013-01-08 13:03:00,
2013-01-08 06:12:00,23.0,3.0,-100.00,East,89,2.0,6.0,42,0.00,,,0.00,0.000000,,2013-01-08 13:12:00,
2013-01-08 06:22:00,23.0,3.0,-100.00,East,89,2.0,6.0,42,0.00,,,0.00,0.000000,,2013-01-08 13:22:00,
2013-01-08 06:53:00,30.0,6.0,-100.00,NW,323,6.0,12.0,36,0.00,,,0.00,0.000000,,2013-01-08 13:53:00,
2013-01-08 07:53:00,26.0,6.0,-100.00,NW,309,3.0,12.0,41,-99.99,,,0.00,1.000000,,2013-01-08 14:53:00,
2013-01-08 08:53:00,30.0,6.0,-100.00,NNW,332,7.0,17.0,35,-99.99,,,0.00,88.000000,,2013-01-08 15:53:00,
2013-01-08 09:30:00,32.0,7.0,-100.00,WNW,296,7.0,17.0,35,-99.99,,,0.00,233.000000,,2013-01-08 16:30:00,
2013-01-08 09:53:00,32.0,7.0,-100.00,WNW,296,7.0,17.0,35,-99.99,,,0.00,233.000000,,2013-01-08 16:53:00,
2013-01-08 10:53:00,37.0,8.0,-100.00,WNW,294,3.0,11.0,29,-99.99,,,0.00,440.000000,,2013-01-08 17:53:00,
2013-01-08 11:03:00,37.0,8.0,-100.00,WNW,294,3.0,11.0,29,-99.99,,,0.00,440.000000,,2013-01-08 18:03:00,
2013-01-08 11:53:00,40.0,10.0,-100.00,WSW,258,4.0,8.0,28,-99.99,,,0.00,500.000000,,2013-01-08 18:53:00,
2013-01-08 12:03:00,40.0,10.0,-100.00,WSW,258,4.0,8.0,28,-99.99,,,0.00,500.000000,,2013-01-08 19:03:00,
2013-01-08 12:53:00,41.0,15.0,-100.00,WNW,292,3.0,13.0,34,-99.99,,,0.00,626.000000,,2013-01-08 19:53:00,
2013-01-08 13:53:00,44.0,17.0,-100.00,SW,225,4.0,13.0,33,-99.99,,,0.00,649.000000,,2013-01-08 20:53:00,
2013-01-08 14:53:00,39.0,17.0,-100.00,NW,313,9.0,15.0,41,-99.99,,,0.00,555.000000,,2013-01-08 21:53:00,
2013-01-08 15:02:00,39.0,17.0,-100.00,NW,313,9.0,15.0,41,-99.99,,,0.00,555.000000,,2013-01-08 22:02:00,
2013-01-08 15:53:00,39.0,19.0,-100.00,NW,321,4.0,18.0,45,-99.99,,,0.00,387.000000,,2013-01-08 22:53:00,
2013-01-08 16:02:00,39.0,19.0,-100.00,NW,321,4.0,18.0,45,-99.99,,,0.00,387.000000,,2013-01-08 23:02:00,
2013-01-08 16:30:00,36.0,18.0,-100.00,NNW,336,5.0,13.0,48,-99.99,,,0.00,164.000000,,2013-01-08 23:30:00,
2013-01-08 16:53:00,36.0,18.0,-100.00,NNW,336,5.0,13.0,48,-99.99,,,0.00,164.000000,,2013-01-08 23:53:00,
2013-01-08 17:02:00,36.0,18.0,-100.00,NNW,336,5.0,13.0,48,-99.99,,,0.00,164.000000,,2013-01-09 00:02:00,
2013-01-08 17:12:00,36.0,18.0,-100.00,NNW,336,5.0,13.0,48,-99.99,,,0.00,164.000000,,2013-01-09 00:12:00,
2013-01-08 17:22:00,36.0,18.0,-100.00,NNW,336,5.0,13.0,48,-99.99,,,0.00,164.000000,,2013-01-09 00:22:00,
2013-01-08 17:30:00,30.0,15.0,-100.00,ENE,75,2.0,8.0,53,-99.99,,,0.00,15.000000,,2013-01-09 00:30:00,
2013-01-08 17:53:00,30.0,15.0,-100.00,ENE,75,2.0,8.0,53,-99.99,,,0.00,15.000000,,2013-01-09 00:53:00,
2013-01-08 18:02:00,30.0,15.0,-100.00,ENE,75,2.0,8.0,53,-99.99,,,0.00,15.000000,,2013-01-09 01:02:00,
2013-01-08 18:12:00,30.0,15.0,-100.00,ENE,75,2.0,8.0,53,-99.99,,,0.00,15.000000,,2013-01-09 01:12:00,
2013-01-08 18:22:00,30.0,15.0,-100.00,ENE,75,2.0,8.0,53,-99.99,,,0.00,15.000000,,2013-01-09 01:22:00,
2013-01-08 18:30:00,29.0,15.0,-100.00,NNE,23,4.0,6.0,55,0.00,,,0.00,0.000000,,2013-01-09 01:30:00,
2013-01-08 18:52:00,29.0,15.0,-100.00,NNE,23,4.0,6.0,55,0.00,,,0.00,0.000000,,2013-01-09 01:52:00,
2013-01-08 19:02:00,29.0,15.0,-100.00,NNE,23,4.0,6.0,55,0.00,,,0.00,0.000000,,2013-01-09 02:02:00,
2013-01-08 19:12:00,29.0,15.0,-100.00,NNE,23,4.0,6.0,55,0.00,,,0.00,0.000000,,2013-01-09 02:12:00,
2013-01-08 19:22:00,29.0,15.0,-100.00,NNE,23,4.0,6.0,55,0.00,,,0.00,0.000000,,2013-01-09 02:22:00,
2013-01-08 19:30:00,25.0,16.0,-100.00,NNW,346,1.0,5.0,67,-99.99,,,0.00,0.000000,,2013-01-09 02:30:00,
2013-01-08 19:53:00,25.0,16.0,-100.00,NNW,346,1.0,5.0,67,-99.99,,,0.00,0.000000,,2013-01-09 02:53:00,
2013-01-08 20:03:00,25.0,16.0,-100.00,NNW,346,1.0,5.0,67,-99.99,,,0.00,0.000000,,2013-01-09 03:03:00,
2013-01-08 20:12:00,25.0,16.0,-100.00,NNW,346,1.0,5.0,67,-99.99,,,0.00,0.000000,,2013-01-09 03:12:00,
2013-01-08 20:22:00,25.0,16.0,-100.00,NNW,346,1.0,5.0,67,-99.99,,,0.00,0.000000,,2013-01-09 03:22:00,
2013-01-08 20:30:00,24.0,14.0,-100.00,SE,141,1.0,3.0,66,0.00,,,0.00,0.000000,,2013-01-09 03:30:00,
2013-01-08 20:53:00,24.0,14.0,-100.00,SE,141,1.0,3.0,66,0.00,,,0.00,0.000000,,2013-01-09 03:53:00,
2013-01-08 21:02:00,24.0,14.0,-100.00,SE,141,1.0,3.0,66,0.00,,,0.00,0.000000,,2013-01-09 04:02:00,
2013-01-08 21:12:00,24.0,14.0,-100.00,SE,141,1.0,3.0,66,0.00,,,0.00,0.000000,,2013-01-09 04:12:00,
2013-01-08 21:22:00,24.0,14.0,-100.00,SE,141,1.0,3.0,66,0.00,,,0.00,0.000000,,2013-01-09 04:22:00,
2013-01-08 21:30:00,23.0,13.0,-100.00,NNE,20,3.0,4.0,66,0.00,,,0.00,0.000000,,2013-01-09 04:30:00,
2013-01-08 21:52:00,23.0,13.0,-100.00,NNE,20,3.0,4.0,66,0.00,,,0.00,0.000000,,2013-01-09 04:52:00,
2013-01-08 22:03:00,23.0,13.0,-100.00,NNE,20,3.0,4.0,66,0.00,,,0.00,0.000000,,2013-01-09 05:03:00,
2013-01-08 22:12:00,23.0,13.0,-100.00,NNE,20,3.0,4.0,66,0.00,,,0.00,0.000000,,2013-01-09 05:12:00,
2013-01-08 22:22:00,23.0,13.0,-100.00,NNE,20,3.0,4.0,66,0.00,,,0.00,0.000000,,2013-01-09 05:22:00,
2013-01-08 22:30:00,23.0,13.0,-100.00,North,10,2.0,4.0,66,0.00,,,0.00,0.000000,,2013-01-09 05:30:00,
2013-01-08 22:52:00,23.0,13.0,-100.00,North,10,2.0,4.0,66,0.00,,,0.00,0.000000,,2013-01-09 05:52:00,
2013-01-08 23:02:00,23.0,13.0,-100.00,North,10,2.0,4.0,66,0.00,,,0.00,0.000000,,2013-01-09 06:02:00,
2013-01-08 23:12:00,23.0,13.0,-100.00,North,10,2.0,4.0,66,0.00,,,0.00,0.000000,,2013-01-09 06:12:00,
2013-01-08 23:22:00,23.0,13.0,-100.00,North,10,2.0,4.0,66,0.00,,,0.00,0.000000,,2013-01-09 06:22:00,
2013-01-08 23:52:00,26.0,14.0,-100.00,NNE,29,6.0,8.0,59,0.00,,,0.00,0.000000,,2013-01-09 06:52:00,